Regional Weather Roundup
Issued by NWS

Home | Current Version | Previous Version | Text Only | Print | Product List | Glossary On
Versions: 1 2 3 4 5 6 7 8 9 10 11 12 13 14 15 16 17 18 19 20 21 22 23 24 25 26 27 28 29 30 31 32 33 34 35 36 37 38 39 40 41 42 43 44 45 46 47 48 49 50
000
ASUS45 KBOU 290307
RWRCO

WEATHER ROUNDUP FOR COLORADO
NATIONAL WEATHER SERVICE DENVER/BOULDER CO
900 PM MDT FRI AUG 28 2015

NOTE: "FAIR" INDICATES FEW OR NO CLOUDS BELOW 12000 FEET WITH NO
SIGNIFICANT WEATHER AND/OR OBSTRUCTIONS TO VISIBILITY.

COZ001>005-013-030-031-290400-
...NORTHWEST COLORADO...

CITY           SKY/WX    TMP DP  RH WIND       PRES   REMARKS
CRAIG          CLEAR     68  42  38 NE8       30.28R
HAYDEN         NOT AVBL
MEEKER         PTCLDY    65  43  44 VRB3      30.30R
MOUNT WERNER   NOT AVBL
STEAMBOAT SPGS CLEAR     63  46  53 E8        30.35R
WALDEN         CLEAR     54  41  62 S5        30.45R
$$

COZ006>008-011-290400-
...WEST CENTRAL VALLEYS...

CITY           SKY/WX    TMP DP  RH WIND       PRES   REMARKS
GRAND JUNCTION PTCLDY    73  45  36 NE8       30.14R
MONTROSE       CLEAR     68  49  50 SE7       30.25R
EAGLE          PTCLDY    66  41  39 E6        30.34R
RIFLE          PTCLDY    68  50  52 CALM      30.23R
DELTA          CLEAR     74  47  38 NE8       30.19R
NUCLA          CLEAR     72  34  25 E6        30.28R
$$

COZ017>023-064>068-290400-
...SOUTHWEST COLORADO...

CITY           SKY/WX    TMP DP  RH WIND       PRES   REMARKS
DURANGO        CLEAR     65  46  50 NE7       30.25R
CORTEZ         CLEAR     65  44  46 E5        30.21R
PAGOSA SPRINGS MOCLDY    66  42  40 NE3       30.35R
TELLURIDE      PTCLDY    60  38  43 CALM      30.50R
WOLF CREEK PAS CLOUDY    50  30  46 E6        30.71R
$$

COZ009-010-012-014-032>034-037-058>063-290400-
...CENTRAL COLORADO...

CITY           SKY/WX    TMP DP  RH WIND       PRES   REMARKS
ASPEN          CLEAR     58  45  62 SW9       30.41R
BUENA VISTA    CLOUDY    66  40  38 E3        30.44R
COPPER MTN     CLEAR     54  34  47 W7        30.74R
BERTHOUD PASS  FAIR      41  30  65 E13G20    30.78R
COTTONWOOD PAS MOCLDY    61  37  41 NE3       30.58R
GUNNISON       CLEAR     61  43  51 N3        30.40R
KREMMLING      PTCLDY    59  43  55 CALM      30.41R
LEADVILLE      PTCLDY    50  33  52 E3        30.56R
MONARCH PASS   MOCLDY    46  37  71 NE22      30.79S
SALIDA         PTCLDY    69  41  36 SE13G21   30.46R
SUNLIGHT       PTCLDY    55  37  50 N3        30.66R
WILKERSON PASS PTCLDY    46  37  71 E10G16    30.71R
$$

COZ069>075-290400-
...SAN LUIS VALLEY/SANGRE DE CRISTO MOUNTAINS...

CITY           SKY/WX    TMP DP  RH WIND       PRES   REMARKS
ALAMOSA        PTCLDY    67  42  40 E18G26    30.35R
LA VETA PASS   MOCLDY    54  39  58 MISG      30.59R
SAGUACHE       PTCLDY    64  41  42 CALM      30.39R
$$

COZ035-036-038>040-290400-
...NORTHERN COLORADO FRONT RANGE...

CITY           SKY/WX    TMP DP  RH WIND       PRES   REMARKS
DENVER INTL AP PTCLDY    75  32  20 SE3       30.25R
DMNS CITY PARK   N/A     70  40  33 SE3G9     30.25R
AURORA         PTCLDY    65  40  41 SE6       30.28R
FRONT RANGE AP PTCLDY    68  36  30 CALM      30.26R
ERIE MUNI ARPT PTCLDY    71  46  41 W6        30.24R
BOULDER MUN AP PTCLDY    73  43  33 SW6       30.25R
CENTENNIAL     MOCLDY    72  41  32 SE5       30.29R
BROOMFIELD     MOCLDY    72  43  35 W7        30.28R
FORT COLLINS   CLEAR     72  46  40 CALM      30.23R
LONGMONT       CLEAR     69  49  49 CALM      30.25R
$$

COZ041-046-047-076>085-087-088-290400-
...PIKES PEAK/PALMER DIVIDE AND SOUTHERN FOOTHILLS...

CITY           SKY/WX    TMP DP  RH WIND       PRES   REMARKS
COLO. SPRINGS  PTCLDY    66  45  46 N10       30.33R
A. F. ACADEMY  CLEAR     63  47  56 N7        30.35R
ELLICOTT       PTCLDY     1   1 100 E9        30.31R WCI -14
FALCON         CLEAR     64  45  50 MISG      30.38R
FORT CARSON    CLOUDY    69  48  47 NW5       30.29R
LIMON          CLEAR     58  47  66 N7        30.25R
MONUMENT HILL  CLEAR     61  41  48 E3        30.39R
TRINIDAD       PTCLDY    71  44  37 NE7       30.27R
$$

COZ042>045-048>051-090-091-290400-
...NORTHEAST COLORADO...

CITY           SKY/WX    TMP DP  RH WIND       PRES   REMARKS
GREELEY ARPT   CLEAR     70  45  40 SE5       30.22R
AKRON          CLEAR     73  41  31 NE12      30.20R
BURLINGTON     CLEAR     68  47  46 NE6       30.17R
WRAY           CLEAR     72  54  52 CALM      30.13R
STERLING       CLEAR     68  50  52 NE3       30.15R
HOLYOKE        CLEAR     66  59  77 CALM      30.14R
FORT MORGAN    CLEAR     66  44  44 NE6       30.20R
$$

COZ086-089-092>099-290400-
...SOUTHEAST COLORADO...

CITY           SKY/WX    TMP DP  RH WIND       PRES   REMARKS
PUEBLO         CLEAR     74  47  38 CALM      30.20R
LA JUNTA       CLEAR     73  47  39 N7        30.16R
LAMAR          PTCLDY    73  53  49 E6        30.10R
SPRINGFIELD      N/A     71  49  45 CALM      30.16R
$$



USA.gov is the U.S. government's official web portal to all federal, state and local government web resources and services.